When you browse on this site, cookies collect data to enhance your experience and personalize the content and advertising you see.
Visit our Privacy Policy to learn more. By continuing to use the site, you agree to this use of cookies and data.
  • En España
  • Lista de países
  • Para 7 días
  • Temperatura del agua
  • El tiempo en el mapa
  • Informadores
  • user-avatar
    Iniciar sesión

    Tiempo cada hora Bylniki

    Hoy, 7 Junio, Domingo

    Tiempo Temperatura Precipitaciones Viento Presión Humedad
    00:00 +15°C° 0 mm 1 mps 738 mmHg 93%
    01:00 +14°C° 0 mm 1 mps 738 mmHg 93%
    02:00 +14°C° 0 mm 1 mps 738 mmHg 93%
    03:00 +14°C° 0 mm 1 mps 739 mmHg 93%
    04:00 +15°C° 0 mm 1 mps 739 mmHg 93%
    05:00 +14°C° 0 mm 0 mps 739 mmHg 92%
    06:00 +18°C° 0 mm 1 mps 740 mmHg 88%
    07:00 +19°C° 0 mm 1 mps 740 mmHg 83%
    08:00 +21°C° 0 mm 1 mps 740 mmHg 79%
    09:00 +22°C° 0 mm 1 mps 741 mmHg 73%
    10:00 +23°C° 0 mm 1 mps 741 mmHg 67%
    11:00 +25°C° 0 mm 1 mps 741 mmHg 61%
    12:00 +25°C° 0 mm 2 mps 741 mmHg 59%
    13:00 +26°C° 0 mm 2 mps 741 mmHg 57%
    14:00 +26°C° 0 mm 2 mps 741 mmHg 56%
    15:00 +26°C° 0 mm 2 mps 741 mmHg 59%
    16:00 +26°C° 0 mm 2 mps 740 mmHg 63%
    17:00 +25°C° 0 mm 2 mps 740 mmHg 67%
    18:00 +24°C° 0 mm 2 mps 740 mmHg 72%
    19:00 +21°C° 0 mm 2 mps 740 mmHg 78%
    20:00 +20°C° 0 mm 2 mps 740 mmHg 83%
    21:00 +19°C° 0 mm 2 mps 740 mmHg 85%
    22:00 +18°C° 0 mm 2 mps 740 mmHg 87%
    23:00 +17°C° 0 mm 2 mps 740 mmHg 90%

    Mañana, 8 Junio, Lunes

    Tiempo Temperatura Precipitaciones Viento Presión Humedad
    00:00 +17°C° 0 mm 2 mps 740 mmHg 92%
    01:00 +17°C° 0 mm 2 mps 740 mmHg 94%
    02:00 +17°C° 0 mm 2 mps 740 mmHg 95%
    03:00 +17°C° 0 mm 2 mps 740 mmHg 95%
    04:00 +17°C° 0 mm 2 mps 740 mmHg 95%
    05:00 +18°C° 0 mm 2 mps 740 mmHg 94%
    06:00 +19°C° 0 mm 2 mps 740 mmHg 90%
    07:00 +21°C° 0 mm 3 mps 740 mmHg 86%
    08:00 +22°C° 0 mm 3 mps 740 mmHg 81%
    09:00 +24°C° 0 mm 3 mps 740 mmHg 77%
    10:00 +25°C° 0 mm 4 mps 740 mmHg 73%
    11:00 +26°C° 0 mm 4 mps 741 mmHg 68%
    12:00 +27°C° 0 mm 4 mps 740 mmHg 67%
    13:00 +27°C° 0 mm 4 mps 740 mmHg 65%
    14:00 +27°C° 0 mm 4 mps 740 mmHg 63%
    15:00 +27°C° 0 mm 3 mps 740 mmHg 65%
    16:00 +27°C° 0 mm 3 mps 740 mmHg 68%
    17:00 +27°C° 0 mm 2 mps 739 mmHg 70%
    18:00 +25°C° 0 mm 2 mps 739 mmHg 75%
    19:00 +23°C° 0 mm 2 mps 739 mmHg 81%
    20:00 +21°C° 0 mm 2 mps 739 mmHg 86%
    21:00 +20°C° 0 mm 2 mps 740 mmHg 87%
    22:00 +19°C° 0 mm 2 mps 740 mmHg 89%
    23:00 +19°C° 0 mm 1 mps 740 mmHg 90%

    Pasado mañana, 9 Junio, Martes

    Tiempo Temperatura Precipitaciones Viento Presión Humedad
    00:00 +18°C° 0 mm 2 mps 740 mmHg 92%
    01:00 +18°C° 0 mm 2 mps 740 mmHg 93%
    02:00 +18°C° 0 mm 2 mps 740 mmHg 95%
    03:00 +18°C° 0 mm 2 mps 740 mmHg 94%
    04:00 +18°C° 0 mm 2 mps 740 mmHg 94%
    05:00 +19°C° 0 mm 2 mps 740 mmHg 94%
    06:00 +20°C° 0 mm 2 mps 741 mmHg 89%
    07:00 +23°C° 0 mm 2 mps 741 mmHg 84%
    08:00 +24°C° 0 mm 2 mps 741 mmHg 80%
    09:00 +25°C° 0 mm 3 mps 741 mmHg 75%
    10:00 +26°C° 0 mm 3 mps 741 mmHg 70%
    11:00 +27°C° 0 mm 3 mps 741 mmHg 66%
    12:00 +28°C° 0.4 mm 3 mps 741 mmHg 66%
    13:00 +28°C° 0.4 mm 3 mps 741 mmHg 66%
    14:00 +28°C° 0.4 mm 3 mps 740 mmHg 67%
    15:00 +28°C° 0.5 mm 2 mps 740 mmHg 69%
    16:00 +27°C° 0.5 mm 2 mps 740 mmHg 72%
    17:00 +27°C° 0.5 mm 1 mps 740 mmHg 75%
    18:00 +26°C° 0.1 mm 1 mps 740 mmHg 79%
    19:00 +24°C° 0.1 mm 2 mps 740 mmHg 83%
    20:00 +23°C° 0.1 mm 2 mps 740 mmHg 88%
    21:00 +21°C° 0 mm 2 mps 740 mmHg 89%
    22:00 +21°C° 0 mm 1 mps 741 mmHg 91%
    23:00 +20°C° 0 mm 1 mps 741 mmHg 92%

    10 Junio, Miércoles

    Tiempo Temperatura Precipitaciones Viento Presión Humedad
    00:00 +20°C° 0 mm 1 mps 741 mmHg 93%
    01:00 +20°C° 0 mm 1 mps 741 mmHg 93%
    02:00 +19°C° 0 mm 1 mps 741 mmHg 94%
    03:00 +19°C° 0 mm 1 mps 741 mmHg 94%
    04:00 +20°C° 0 mm 1 mps 741 mmHg 94%
    05:00 +20°C° 0 mm 1 mps 741 mmHg 94%
    06:00 +20°C° 0.1 mm 2 mps 741 mmHg 91%
    07:00 +23°C° 0.1 mm 2 mps 741 mmHg 87%
    08:00 +25°C° 0.1 mm 2 mps 741 mmHg 83%
    09:00 +25°C° 1.2 mm 2 mps 741 mmHg 79%
    10:00 +26°C° 1.2 mm 2 mps 741 mmHg 75%
    11:00 +27°C° 1.2 mm 2 mps 741 mmHg 71%
    12:00 +28°C° 0.2 mm 2 mps 741 mmHg 69%
    13:00 +28°C° 0.2 mm 2 mps 740 mmHg 67%
    14:00 +28°C° 0.2 mm 2 mps 740 mmHg 65%
    15:00 +28°C° 0.1 mm 2 mps 740 mmHg 68%
    16:00 +28°C° 0.1 mm 2 mps 740 mmHg 71%
    17:00 +28°C° 0.1 mm 2 mps 740 mmHg 73%
    18:00 +26°C° 0.3 mm 2 mps 740 mmHg 79%
    19:00 +24°C° 0.3 mm 2 mps 740 mmHg 84%
    20:00 +23°C° 0.3 mm 2 mps 740 mmHg 89%
    21:00 +21°C° 0.1 mm 2 mps 740 mmHg 91%
    22:00 +20°C° 0.1 mm 2 mps 740 mmHg 93%
    23:00 +20°C° 0.1 mm 2 mps 740 mmHg 95%

    11 Junio, Jueves

    Tiempo Temperatura Precipitaciones Viento Presión Humedad
    00:00 +19°C° 0 mm 2 mps 740 mmHg 95%
    01:00 +19°C° 0 mm 2 mps 740 mmHg 96%
    02:00 +19°C° 0 mm 2 mps 740 mmHg 96%
    03:00 +19°C° 0 mm 2 mps 740 mmHg 97%
    04:00 +19°C° 0 mm 2 mps 740 mmHg 97%
    05:00 +19°C° 0 mm 2 mps 740 mmHg 97%
    06:00 +21°C° 0 mm 2 mps 740 mmHg 93%
    07:00 +23°C° 0 mm 2 mps 740 mmHg 89%
    08:00 +24°C° 0 mm 3 mps 740 mmHg 86%
    09:00 +25°C° 0.1 mm 3 mps 740 mmHg 80%
    10:00 +27°C° 0.1 mm 3 mps 740 mmHg 75%
    11:00 +28°C° 0.1 mm 3 mps 740 mmHg 70%
    12:00 +28°C° 0.1 mm 3 mps 740 mmHg 68%
    13:00 +28°C° 0.1 mm 3 mps 740 mmHg 66%
    14:00 +29°C° 0.1 mm 3 mps 740 mmHg 65%
    15:00 +28°C° 0 mm 3 mps 740 mmHg 66%
    16:00 +28°C° 0 mm 3 mps 739 mmHg 68%
    17:00 +28°C° 0 mm 2 mps 739 mmHg 70%
    18:00 +26°C° 0 mm 2 mps 739 mmHg 75%
    19:00 +25°C° 0 mm 2 mps 739 mmHg 80%
    20:00 +23°C° 0 mm 2 mps 739 mmHg 85%
    21:00 +21°C° 0 mm 2 mps 739 mmHg 87%
    22:00 +20°C° 0 mm 2 mps 739 mmHg 90%
    23:00 +19°C° 0 mm 2 mps 739 mmHg 92%

    12 Junio, Viernes

    Tiempo Temperatura Precipitaciones Viento Presión Humedad
    00:00 +19°C° 0 mm 2 mps 739 mmHg 93%
    01:00 +19°C° 0 mm 2 mps 739 mmHg 94%
    02:00 +18°C° 0 mm 2 mps 739 mmHg 95%
    03:00 +18°C° 0 mm 2 mps 739 mmHg 95%
    04:00 +19°C° 0 mm 2 mps 739 mmHg 94%
    05:00 +19°C° 0 mm 2 mps 739 mmHg 94%
    06:00 +21°C° 0 mm 2 mps 739 mmHg 89%
    07:00 +22°C° 0 mm 3 mps 739 mmHg 85%
    08:00 +25°C° 0 mm 3 mps 739 mmHg 80%
    09:00 +26°C° 0 mm 3 mps 739 mmHg 77%
    10:00 +27°C° 0 mm 3 mps 739 mmHg 73%
    11:00 +28°C° 0 mm 3 mps 739 mmHg 69%
    12:00 +28°C° 0 mm 3 mps 739 mmHg 67%
    13:00 +29°C° 0 mm 3 mps 739 mmHg 65%
    14:00 +29°C° 0 mm 3 mps 739 mmHg 63%
    15:00 +29°C° 0.2 mm 2 mps 739 mmHg 67%
    16:00 +29°C° 0.2 mm 2 mps 738 mmHg 70%
    17:00 +29°C° 0.2 mm 2 mps 738 mmHg 74%
    18:00 +27°C° 0.1 mm 2 mps 738 mmHg 78%
    19:00 +25°C° 0.1 mm 2 mps 738 mmHg 82%
    20:00 +24°C° 0.1 mm 2 mps 738 mmHg 86%
    21:00 +23°C° 0 mm 2 mps 738 mmHg 88%
    22:00 +21°C° 0 mm 2 mps 738 mmHg 90%
    23:00 +20°C° 0 mm 3 mps 738 mmHg 92%
    Mostrar más